Location: Dana
(41.8364°N, 106.7042°W)
Time: 01:44:50
(UTC+00:00)

Transit 4A - Pass Details

Date: 19 May 2026
Orbit: 860 x 980 km, 66.8° (Epoch: 6 June)

Event Time Altitude Azimuth Distance (km) Brightness Sun altitude
Rises 12:38:00 0° 166° (SSE) 3,527 10.9 8.6°
Reaches altitude 10° 12:41:04 10° 151° (SSE) 2,613 10.4 9.1°
Maximum altitude 12:45:28 21° 104° (ESE) 1,969 10.8 9.9°
Drops below altitude 10° 12:49:58 10° 58° (ENE) 2,684 12.3 10.7°
Sets 12:53:09 0° 43° (NE) 3,653 12.1 11.3°
